Voltar ao catálogo

CZ-6A DEB

AtivoPO
NORAD 61100·DEBRIS·🇨🇳 China

Lançado Aug 6, 2024 de Taiyuan Satellite Launch Center

Loading…

Próximas Passagens (próximas 24 horas)

TLE

AtualizadoSource: Space-Track

Época: Sep 14, 2026, 11:02 UTC

1 61100U 24140NS  26257.46015495  .00001523  00000-0  31421-3 0  9990
2 61100  89.0311 262.9684 0109553 317.5928  41.6852 14.56229321108603

Acompanhe CZ-6A DEB em tempo real com AllMySat

Download on the App Store